Showing default

YAOGAN-30 K, 43170

Orbit data source: Space-Track

YAOGAN-30 K, 43170 is a payload satellite owned by PLA SSF (CN) in LEO that was launched on Thu, 25 Jan 2018 UTC via a CHANG ZHENG 2C launch vehicle from the Xichang Space Center, China (XSC). Payload-class satellites include a variety of spacecraft equipped with specific instruments for various scientific and technological missions. These include communications satellites like Starlink; space stations such as the ISS; scientific satellites like the Hubble; Earth observation satellites from companies like Planet Labs, Umbra, and HawkEye 360; GPS; miniature CubeSats for education and research; and military/defense satellites.

Loading next visibility...
Identifier
43170, 2018-011B
Orbit
LEO
Country
Flag of CNCN / PRC
Related business
Manufacturer
SECM
Mission
Operational Defense Sigint
Bus & Motor
Unknown
Mass
~500 kg wet, ~500 kg dry
Launch date (UTC)
2018-01-25 (8 years ago)
Launch vehicle
CHANG ZHENG 2C
Launch site
Xichang Space Center, China (XSC)
Object type
Payload
Rocket body
Debris
Shape & HBR
Box + 2 Pan, 0.5 m
Radar Cross Section
0.446 m², Large (>1 m²)

Expand to show TLE details & history
Last TLE update: 14 hours ago

TLE from 14 hours ago
0 YAOGAN-30 K
1 43170U 18011B   25340.42292678  .00006226  00000-0  47390-3 0  9992
2 43170  34.9959 244.8164 0002430  66.2686 293.8277 15.01478827429149
Epoch: 2025-12-06T10:09Z
TLE epoch observation values (Epoch: 2025-12-06T10:09:00.873Z)
Latitude
-0°
Longitude
17.11187°
Altitude
560.572 km
Speed
7.584 km/s
True Right ascension
16h 19m 15s
True Declination
0° 00' 00"
Sunlit
Object was in daylight at epoch
Visualization orbit readout
Latitude
Unknown
Longitude
Unknown
Altitude
Unknown
Speed
Unknown
Apparent Right ascension
Unknown
Apparent Declination
Unknown
Sunlit
N/A
Visualization observer readout
Local Sidereal Time
22:31:39
Azimuth
Unknown
Elevation
Unknown
Doppler factor
Unknown
Orbital elements
Apogee altitude
567.243 km
Perigee altitude
563.868 km
Semi-major axis
6,943.693 km
Eccentricity
0.00024
Inclination
34.9959°
RAAN
244.8164°
Arg. of periapsis
66.2686°
True anomaly
293.80222°
Mean anomaly
293.8277°
Eccentric anomaly
293.81496°
Mean motion
3.75109 °/min
Orbital period
95.97 mins
BSTAR
0.0004739
Loading maneuver chart data...
Computing Atmospheric mass density...
Loading historical data...
Loading historical data...
Loading historical data...
Loading historical data...
Loading historical data...
Loading historical data...
Loading historical data...
Other satellites on launch #11 in the year 2018 (2018-01-25 UTC)

Documentation

Showing up to 5 results
|